SPACEBEE-51 (47444 NORAD) Tracking and Keplerian Element Data

This shows tracking and keplerian element data for the satellite.

Feedback or suggestion? Click here.




ElementValue
Catalog47444
NameSPACEBEE-51
Epoch Orbit1256
Epoch Day105.75427541
Epoch Year2021
RAAN167.9178
Inclination97.4924
Eccentricity0.0005402
Argument of Perigee341.7999
Mean Anonmoly18.3037
Mean Motion15.11933307
Decay Rate2.214E-05
L11 47444U 21006AH 21105.75427541 .00002214 00000-0 13290-3 0 9993
L22 47444 97.4924 167.9178 0005402 341.7999 18.3037 15.11933307 12561

Live tracking and technical data element details for SPACEBEE-51 (NORAD 47444). SPACEBEE-51 can be tracked NOW for your location showing map with azimuth and elevation plus other details from your city location.

Track the satellite on the map from your city or location and see movement details for azimuth, elevation, latitude, longitude, range, height, and movement on the map or in text.







IsCatalogInMostPopularTable: catalog: 47444, numindb: 17
Update: records affected: 1



GetName: 47444 SPACEBEE-51

Hit Count: updated at: Fri, 16 Apr 2021 11:25:05 GMT